Retour au catalogue

STARLINK-11539

ActifCommunicationsVLEO
NORAD 62987·PAYLOAD·🇺🇸 United States

Lancé Feb 11, 2025 depuis Cape Canaveral Space Force Station

Loading…

Prochains Passages (prochaines 24 heures)

TLE

FraisSource: CelesTrak SupGP

Époque: Sep 14, 2026, 22:56 UTC

1 62987C 25031G   26257.95604167 -.00014537  00000+0 -11294-3 0  2571
2 62987  43.0003 300.5738 0001579 254.2750 321.6945 15.70838628    16

Suivez STARLINK-11539 en temps réel avec AllMySat

Download on the App Store